GW2525 Weather Reports


time (UTC)temp
C
wind
direction
speed
KPH
gust
KPH
rain 1hr
cm
rain 24hr
cm
rain mn
cm
humidity
%
barometer
mb
20260504215004 11 358 1.6 6.4 0.15 0.56 0.56 95 1009.8
20260504214714 11 322 3.2 6.4 0.15 0.56 0.56 95 1009.8
20260504214003 11 285 4.8 9.7 0.15 0.58 0.56 95 1009.8
20260504213503 11 231 3.2 6.4 0.15 0.58 0.56 94 1009.8
20260504213004 11 161 1.6 6.4 0.15 0.58 0.56 94 1009.8
20260504212503 11 112 1.6 4.8 0.15 0.58 0.56 94 1010.0
20260504212003 11 49 3.2 9.7 0.15 0.58 0.56 93 1010.0
20260504211504 11 37 4.8 11.3 0.15 0.58 0.56 92 1010.2
20260504211003 12 26 4.8 11.3 0.15 0.58 0.56 92 1010.3
20260504210503 12 279 11.3 24.1 0.15 0.58 0.56 91 1010.4
20260504210005 12 270 16.1 29.0 0.15 0.56 0.53 90 1010.5
20260504205503 12 257 12.9 29.0 0.08 0.51 0.48 94 1010.5
20260504205214 12 248 9.7 29.0 0.03 0.43 0.43 97 1010.5
20260504204713 12 246 4.8 14.5 0.00 0.43 0.41 97 1010.6
20260504204003 12 283 0.0 3.2 0.00 0.43 0.41 97 1010.0
20260504203503 12 283 0.0 3.2 0.00 0.43 0.41 97 1009.9
20260504203004 12 283 0.0 3.2 0.00 0.43 0.41 97 1009.9
20260504202713 12 283 0.0 4.8 0.00 0.43 0.41 97 1009.8
20260504202214 12 283 1.6 4.8 0.00 0.43 0.41 97 1009.7
20260504201503 12 283 3.2 4.8 0.00 0.43 0.41 97 1009.6
20260504201003 12 283 1.6 4.8 0.00 0.43 0.41 96 1009.5
20260504200713 12 284 0.0 3.2 0.00 0.43 0.41 97 1009.5
20260504200214 12 284 0.0 3.2 0.00 0.43 0.41 97 1009.4
20260504195503 13 284 0.0 3.2 0.00 0.43 0.41 96 1009.4
20260504195003 13 284 0.0 1.6 0.00 0.43 0.41 96 1009.4
20260504194503 13 284 1.6 3.2 0.00 0.43 0.41 96 1009.4
20260504194003 13 284 0.0 3.2 0.00 0.43 0.41 96 1009.4
20260504193503 13 284 0.0 3.2 0.00 0.43 0.41 96 1009.3
20260504193214 13 284 0.0 3.2 0.00 0.43 0.41 96 1009.3
20260504192503 13 271 1.6 6.4 0.00 0.43 0.41 96 1009.3
20260504192003 13 262 3.2 6.4 0.00 0.43 0.41 96 1009.2
20260504191503 13 241 1.6 6.4 0.00 0.43 0.41 96 1009.1
20260504191003 13 214 0.0 1.6 0.00 0.43 0.41 95 1008.9
20260504190713 13 214 1.6 3.2 0.00 0.43 0.41 95 1008.9
20260504190005 13 207 1.6 4.8 0.00 0.43 0.41 95 1008.9
20260504185503 13 189 0.0 4.8 0.00 0.43 0.41 95 1008.9
20260504185004 13 163 0.0 3.2 0.00 0.43 0.41 95 1008.7
20260504184504 13 163 0.0 3.2 0.00 0.43 0.41 95 1008.6
20260504184003 13 163 0.0 3.2 0.00 0.43 0.41 95 1008.6
20260504183503 13 163 1.6 6.4 0.00 0.43 0.41 95 1008.5
20260504183004 13 150 1.6 6.4 0.00 0.43 0.41 94 1008.5
20260504182715 14 147 1.6 6.4 0.00 0.43 0.41 94 1008.6
20260504182003 14 118 0.0 1.6 0.00 0.43 0.41 94 1008.5
20260504181503 14 118 1.6 3.2 0.00 0.43 0.41 94 1008.5
20260504181003 14 116 3.2 6.4 0.00 0.43 0.41 94 1008.5
20260504180504 14 109 4.8 9.7 0.00 0.43 0.41 94 1008.5
20260504180004 14 105 4.8 9.7 0.00 0.43 0.41 94 1008.5
20260504175714 14 104 4.8 9.7 0.00 0.43 0.41 93 1008.5
20260504175003 14 115 3.2 6.4 0.00 0.43 0.41 93 1008.6
20260504174503 14 137 3.2 9.7 0.00 0.43 0.41 92 1008.8
20260504174003 14 146 4.8 9.7 0.00 0.43 0.41 92 1008.8
20260504173503 14 141 4.8 9.7 0.00 0.43 0.41 92 1008.8
20260504173004 14 136 3.2 8.0 0.00 0.43 0.41 92 1008.6
20260504172506 14 124 4.8 12.9 0.00 0.43 0.41 92 1008.6
20260504172004 14 129 4.8 12.9 0.00 0.43 0.41 92 1008.6
20260504171714 14 127 4.8 12.9 0.00 0.43 0.41 92 1008.6
20260504171004 14 120 6.4 12.9 0.00 0.43 0.41 93 1008.7
20260504170504 14 122 4.8 12.9 0.00 0.43 0.41 93 1008.9
20260504170215 14 115 4.8 12.9 0.00 0.43 0.41 93 1008.9
20260504150503 15 74 0.0 8.0 0.13 0.30 0.25 95 1009.3
20260504141003 15 107 3.2 6.4 0.10 0.18 0.15 94 1009.3
20260504140504 15 97 3.2 9.7 0.10 0.18 0.15 94 1009.1
20260504130504 16 99 12.9 22.5 0.03 0.08 0.05 85 1009.2
20260504110714 19 126 3.2 9.7 0.00 0.05 0.03 61 1010.2
20260504100503 18 281 8.0 19.3 0.00 0.05 0.03 64 1010.6
20260504082004 17 289 9.7 20.9 0.00 0.05 0.03 71 1010.3
20260504081503 17 266 11.3 20.9 0.00 0.05 0.03 72 1010.3
20260504081003 17 272 11.3 20.9 0.00 0.05 0.03 72 1010.4
20260504080713 16 275 12.9 20.9 0.00 0.05 0.03 72 1010.4
20260504060215 13 339 3.2 16.1 0.00 0.05 0.03 91 1010.9
20260504050503 10 285 3.2 6.4 0.00 0.05 0.03 97 1011.1
20260504050215 11 292 4.8 6.4 0.00 0.05 0.03 97 1011.1
20260504045504 10 297 4.8 6.4 0.00 0.05 0.03 98 1011.1
20260504045003 10 286 4.8 8.0 0.00 0.05 0.03 97 1011.1
20260504044504 10 272 3.2 8.0 0.00 0.05 0.03 97 1011.1
20260504044004 10 276 1.6 8.0 0.00 0.05 0.03 98 1011.2
20260504043503 10 251 1.6 6.4 0.00 0.05 0.03 97 1011.2
20260504043004 10 238 1.6 4.8 0.00 0.05 0.03 97 1011.3
20260504042713 10 255 3.2 9.7 0.00 0.05 0.03 97 1011.4
20260504042003 10 283 4.8 9.7 0.00 0.05 0.03 97 1011.4
20260504041504 10 288 4.8 8.0 0.00 0.05 0.03 97 1011.3
20260504041003 10 280 3.2 9.7 0.00 0.05 0.03 98 1011.4
20260504040503 10 282 3.2 9.7 0.00 0.05 0.03 97 1011.5
20260504040004 10 274 1.6 6.4 0.00 0.05 0.03 98 1011.4
20260504035713 10 261 1.6 4.8 0.00 0.05 0.03 98 1011.4
20260504035004 10 254 1.6 4.8 0.00 0.05 0.03 97 1011.6
20260504034504 10 265 1.6 4.8 0.00 0.05 0.03 97 1011.5
20260504034003 10 285 1.6 9.7 0.00 0.05 0.03 97 1011.7
20260504033713 10 286 3.2 9.7 0.00 0.05 0.03 98 1011.7
20260504033214 10 284 4.8 11.3 0.00 0.05 0.03 97 1011.8
20260504032713 10 293 6.4 11.3 0.00 0.05 0.03 97 1011.8
20260504032004 10 307 1.6 11.3 0.00 0.05 0.03 97 1011.8
20260504031503 10 310 0.0 4.8 0.00 0.05 0.03 97 1011.7
20260504031004 10 304 1.6 3.2 0.00 0.05 0.03 97 1011.8
20260504030503 10 304 1.6 4.8 0.00 0.05 0.03 97 1011.7
20260504030214 10 301 3.2 4.8 0.00 0.05 0.03 97 1011.8
20260504025503 10 280 3.2 6.4 0.00 0.05 0.03 97 1011.9
20260504025003 10 267 1.6 6.4 0.00 0.05 0.03 97 1011.9
20260504024503 10 262 1.6 4.8 0.00 0.05 0.03 97 1011.9
20260504024003 11 262 1.6 4.8 0.00 0.05 0.03 97 1011.9
20260504023715 11 236 1.6 4.8 0.00 0.05 0.03 97 1011.9
20260504023004 11 169 1.6 4.8 0.00 0.05 0.03 97 1011.9
20260504022504 11 154 1.6 4.8 0.00 0.05 0.03 97 1011.8
20260504022003 11 154 1.6 8.0 0.00 0.05 0.03 97 1011.8
20260504021503 11 143 3.2 8.0 0.00 0.05 0.03 97 1011.9
20260504021003 11 143 3.2 8.0 0.00 0.05 0.03 97 1012.0
20260504020503 11 157 1.6 4.8 0.00 0.05 0.03 97 1011.9
20260504020005 11 157 1.6 4.8 0.00 0.05 0.03 97 1011.9
20260504015504 11 155 1.6 4.8 0.00 0.05 0.03 97 1011.9
20260504015213 11 155 1.6 4.8 0.00 0.05 0.03 97 1011.9
20260504014714 11 153 0.0 3.2 0.00 0.05 0.03 97 1011.8
20260504014003 11 193 1.6 6.4 0.00 0.05 0.03 97 1011.9
20260504013503 11 245 1.6 6.4 0.00 0.05 0.03 97 1011.9
20260504013004 11 300 1.6 6.4 0.00 0.05 0.03 97 1011.9
20260504012503 11 262 1.6 6.4 0.00 0.05 0.03 97 1011.9
20260504012003 11 222 1.6 6.4 0.00 0.05 0.03 97 1012.0
20260504011503 11 222 1.6 6.4 0.00 0.05 0.03 97 1012.1
20260504011004 11 285 0.0 1.6 0.00 0.05 0.03 97 1012.2
20260504010714 11 285 0.0 1.6 0.00 0.05 0.03 97 1012.2
20260504010004 11 284 1.6 4.8 0.00 0.05 0.03 97 1012.2
20260504005504 11 284 1.6 6.4 0.00 0.05 0.03 97 1012.4
20260504005004 11 271 3.2 8.0 0.00 0.05 0.03 97 1012.3
20260504004504 11 265 4.8 8.0 0.00 0.05 0.03 97 1012.3
20260504004213 11 265 3.2 8.0 0.00 0.05 0.03 97 1012.4
20260504003504 11 55 0.0 4.8 0.00 0.05 0.03 97 1012.4
20260504003004 11 221 1.6 4.8 0.00 0.05 0.03 97 1012.5
20260504002504 11 228 0.0 4.8 0.00 0.05 0.03 97 1012.5
20260504002003 11 228 0.0 1.6 0.00 0.05 0.03 97 1012.5
20260504001504 11 228 0.0 1.6 0.00 0.05 0.03 97 1012.6
20260504001003 11 228 0.0 3.2 0.00 0.05 0.03 97 1012.6
20260504000503 11 175 1.6 4.8 0.00 0.05 0.03 97 1012.6
20260504000215 11 145 1.6 4.8 0.00 0.05 0.03 97 1012.6
20260503235504 11 117 1.6 4.8 0.00 0.05 0.03 97 1012.7
20260503235003 12 116 0.0 3.2 0.00 0.05 0.03 97 1012.8
20260503234503 12 116 0.0 1.6 0.00 0.05 0.03 97 1012.8
20260503234003 12 116 0.0 1.6 0.00 0.05 0.03 97 1012.9
20260503233503 12 116 0.0 3.2 0.00 0.05 0.03 97 1012.9
20260503233004 12 116 0.0 3.2 0.00 0.05 0.03 97 1013.0
20260503232503 12 116 0.0 1.6 0.03 0.05 0.03 97 1013.0
20260503232004 12 116 0.0 1.6 0.03 0.05 0.03 97 1013.1
20260503231713 12 116 0.0 1.6 0.03 0.05 0.03 97 1013.1
20260503231004 12 116 0.0 1.6 0.03 0.05 0.03 97 1013.2
20260503230503 12 116 1.6 3.2 0.03 0.05 0.03 96 1013.3
20260503230004 12 116 0.0 3.2 0.03 0.05 0.03 96 1013.3
20260503225503 12 116 0.0 1.6 0.03 0.05 0.03 96 1013.3
20260503225004 12 0 0.0 0.0 0.03 0.05 0.03 96 1013.4
20260503224503 12 116 0.0 1.6 0.03 0.05 0.03 96 1013.5
20260503224004 12 116 0.0 1.6 0.05 0.05 0.03 96 1013.6
20260503223504 12 0 0.0 0.0 0.05 0.05 0.03 96 1013.6
20260503223004 12 0 0.0 0.0 0.05 0.05 0.03 96 1013.6
20260503222503 12 117 0.0 1.6 0.03 0.05 0.00 96 1013.7
20260503222003 12 117 0.0 1.6 0.03 0.05 0.00 96 1013.7
20260503221503 12 117 0.0 1.6 0.03 0.05 0.00 96 1013.8
20260503221003 12 117 0.0 4.8 0.03 0.05 0.00 96 1013.7
20260503220504 12 116 1.6 4.8 0.03 0.05 0.00 96 1013.8
20260503220005 12 116 3.2 4.8 0.03 0.05 0.00 96 1013.8
20260503215503 12 118 3.2 4.8 0.03 0.05 0.05 96 1013.8